FW6537 Weather Reports


time (UTC)temp
F
wind
direction
speed
knots
gust
knots
rain 1hr
in
rain 24hr
in
rain mn
in
humidity
%
barometer
mb
20260505164636 75 56 2.6 11.3 0.00 0.00 0.00 51 1003.0
20260505163129 74 97 2.6 10.4 0.00 0.00 0.00 51 1003.0
20260505160126 75 65 0.9 7.0 0.00 0.00 0.00 52 1003.0
20260505153147 74 33 2.6 6.1 0.00 0.00 0.00 52 1003.4
20260505151625 74 90 0.9 7.0 0.00 0.00 0.00 52 1003.5
20260505150124 76 73 3.5 10.4 0.00 0.00 0.00 50 1003.4
20260505140135 74 78 2.6 8.7 0.00 0.00 0.00 51 1002.8
20260505130155 72 56 4.3 10.4 0.00 0.00 0.00 55 1003.1
20260505124646 71 56 4.3 9.6 0.00 0.00 0.00 56 1003.2
20260505123158 70 60 2.6 8.7 0.00 0.00 0.00 58 1003.1
20260505121625 68 347 3.5 11.3 0.00 0.00 0.00 60 1003.1
20260505120147 68 27 3.5 8.7 0.00 0.00 0.00 61 1003.0
20260505114700 68 110 2.6 11.3 0.00 0.00 0.00 60 1002.9
20260505113131 66 41 1.7 7.0 0.00 0.00 0.00 64 1003.0
20260505111626 66 58 1.7 7.8 0.00 0.00 0.00 64 1002.9
20260505110149 65 76 2.6 5.2 0.00 0.00 0.00 64 1002.8
20260505101627 62 358 0.9 5.2 0.00 0.00 0.00 71 1002.4
20260505100129 60 81 0.9 2.6 0.00 0.00 0.00 73 1002.5
20260505094625 60 14 0.9 4.3 0.00 0.00 0.00 75 1002.6
20260505093128 60 94 2.6 6.1 0.00 0.00 0.00 76 1002.6
20260505091700 60 90 0.9 4.3 0.00 0.00 0.00 80 1002.6
20260505090135 60 72 0.9 5.2 0.00 0.00 0.00 81 1002.7
20260505084632 60 340 0.0 1.7 0.00 0.00 0.00 81 1002.7
20260505083133 62 95 0.0 2.6 0.00 0.00 0.00 76 1003.3
20260505081646 63 352 2.6 9.6 0.00 0.00 0.00 71 1003.3
20260505080158 62 24 1.7 4.3 0.00 0.00 0.00 68 1003.4
20260505074651 63 294 1.7 6.1 0.00 0.00 0.00 67 1003.0
20260505073123 63 101 0.9 2.6 0.00 0.00 0.00 68 1003.0
20260505071621 63 54 1.7 3.5 0.00 0.00 0.00 66 1003.2
20260505070136 64 18 1.7 4.3 0.00 0.00 0.00 66 1003.1
20260505063147 66 72 2.6 11.3 0.00 0.00 0.00 57 1002.8
20260505061640 66 90 1.7 7.0 0.00 0.00 0.00 57 1003.2
20260505060138 67 99 2.6 11.3 0.00 0.00 0.00 53 1002.9
20260505054630 67 89 2.6 9.6 0.00 0.00 0.00 52 1003.0
20260505053130 66 75 1.7 7.0 0.00 0.00 0.00 52 1003.1
20260505051701 66 50 2.6 6.1 0.00 0.00 0.00 53 1003.2
20260505050131 65 103 0.0 3.5 0.00 0.00 0.00 54 1003.1
20260505041632 64 25 1.7 4.3 0.00 0.00 0.00 54 1003.1
20260505040145 64 67 0.9 3.5 0.00 0.00 0.00 54 1003.0
20260505034644 64 41 0.9 3.5 0.00 0.00 0.00 53 1002.8
20260505033134 64 71 0.9 2.6 0.00 0.00 0.00 52 1002.9
20260505031629 64 87 0.9 3.5 0.00 0.00 0.00 52 1002.8
20260505030137 65 79 0.9 2.6 0.00 0.00 0.00 52 1002.8
20260505024634 65 68 0.9 4.3 0.00 0.00 0.00 51 1002.8
20260505023128 64 60 0.9 3.5 0.00 0.00 0.00 52 1003.0
20260505021626 64 67 0.9 2.6 0.00 0.00 0.00 51 1003.1
20260505020131 63 63 0.9 3.5 0.00 0.00 0.00 52 1003.0
20260505014623 61 94 0.0 0.0 0.00 0.00 0.00 54 1003.0
20260505013127 61 94 0.0 0.0 0.00 0.00 0.00 55 1003.0
20260505011626 62 94 0.0 0.0 0.00 0.00 0.00 55 1003.1
20260505010125 62 94 0.0 0.0 0.00 0.00 0.00 53 1002.8
20260505004624 64 94 0.0 0.0 0.00 0.00 0.00 51 1002.8
20260505003124 65 94 0.0 0.0 0.00 0.00 0.00 47 1002.7
20260505001639 67 94 0.0 0.0 0.00 0.00 0.00 43 1002.7
20260505000137 69 94 0.0 0.0 0.00 0.00 0.00 40 1002.6
20260504234655 70 94 0.0 0.0 0.00 0.00 0.00 37 1002.5
20260504233158 72 94 0.0 0.0 0.00 0.00 0.00 35 1002.5
20260504231631 73 77 0.9 3.5 0.00 0.00 0.00 33 1002.4
20260504230129 74 91 0.9 5.2 0.00 0.00 0.00 32 1002.5
20260504224647 75 89 0.0 3.5 0.00 0.00 0.00 32 1002.5
20260504223142 76 97 0.9 6.1 0.00 0.00 0.00 32 1002.6
20260504221658 76 66 1.7 7.8 0.00 0.00 0.00 31 1002.8
20260504220132 76 84 1.7 7.0 0.00 0.00 0.00 32 1002.8
20260504214626 76 76 3.5 7.8 0.00 0.00 0.00 32 1002.8
20260504213136 75 13 1.7 6.1 0.00 0.00 0.00 35 1002.9
20260504211634 76 118 1.7 6.1 0.00 0.00 0.00 35 1003.0
20260504210124 76 58 3.5 7.0 0.00 0.00 0.00 34 1002.8
20260504204643 76 84 2.6 6.1 0.00 0.00 0.00 36 1003.1
20260504203152 75 46 4.3 7.8 0.00 0.00 0.00 36 1003.4
20260504201648 74 88 4.3 8.7 0.00 0.00 0.00 36 1003.6
20260504200139 74 60 3.5 9.6 0.00 0.00 0.00 37 1003.8
20260504194625 74 39 3.5 7.8 0.00 0.00 0.00 37 1003.9
20260504193146 73 4 3.5 9.6 0.00 0.00 0.00 39 1004.2
20260504191649 73 54 3.5 12.2 0.00 0.00 0.00 40 1004.3
20260504190151 73 104 1.7 10.4 0.00 0.00 0.00 42 1004.4
20260504184641 72 86 3.5 8.7 0.00 0.00 0.00 44 1004.6
20260504183131 71 51 5.2 14.8 0.00 0.00 0.00 43 1004.7
20260504181624 71 68 3.5 7.8 0.00 0.00 0.00 43 1004.8
20260504180125 71 73 3.5 5.2 0.00 0.00 0.00 44 1004.9
20260504174657 70 57 1.7 10.4 0.00 0.00 0.00 45 1005.0
20260504173131 70 29 3.5 13.9 0.00 0.00 0.00 45 1005.2
20260504171628 70 43 3.5 14.8 0.00 0.00 0.00 44 1005.0
20260504170200 69 134 3.5 8.7 0.00 0.00 0.00 45 1005.2